Terminal Aerodrome Forecast
Issued by NWS

Home | Current Version | Previous Version | Text Only | Print | Product List | Glossary On
Versions: 1 2 3 4 5 6 7 8 9 10 11 12 13 14 15 16 17
000
FTUS43 KPAH 251125
TAFCGI
TAF
KCGI 251125Z 2512/2612 16010KT P6SM OVC010
     FM251700 20014G24KT P6SM SCT020 BKN050
     FM252100 26013G20KT P6SM VCTS BKN040CB PROB30 2522/2604 3SM
      TSRA BR BKN025CB
     FM260400 33008KT P6SM OVC007=

USA.gov is the U.S. government's official web portal to all federal, state and local government web resources and services.